Tracking 35334 objects as of 12-Sep-2026
HD Live streaming from Space Station
objects crossing your sky now

FOTON 5 DEB


FOTON 5 DEB is no longer on orbit


NORAD ID: 22200
Int'l Code: 1992-065D
Launch date: October 8, 1992
Source: Commonwealth of Independent States (former USSR) (CIS)
Launch site: PLESETSK MISSILE AND SPACE COMPLEX (PKMTR)
Decay date: 1992-10-31

Note: This is SATELLITE DEBRIS
Your satellite tracking list
Your tracking list is empty




NASA's NSSDC Master Catalog

Two Line Element Set (TLE):
1 22200U 92065  D 92304.45197673  .06963113 +37800-4 +75553-3 0  9997
2 22200 062.7958 167.5601 0026281 106.5339 255.0737 16.35567259003479
Source of the keplerian elements: AFSPC